Location: North Evanston
(42.0634°N, 87.6976°W)
Time: 05:06:46
(UTC+00:00)

Tiros 1 despin weight - Pass Details

Date: 18 May 2026
Orbit: 554 x 591 km, 48.2° (Epoch: 7 June)

Event Time Altitude Azimuth Distance (km) Brightness Sun altitude
Exits shadow 08:51:46 19° 184° (S) 1,375 ? -15.1°
Maximum altitude 08:53:53 29° 140° (SE) 1,057 ? -14.8°
Drops below altitude 10° 08:57:32 10° 80° (E) 1,854 ? -14.3°
Sets 09:00:00 0° 69° (ENE) 2,747 ? -14.0°
